Abilene, TX

7:18 AM CST on December 03, 2016 (GMT -0600)
Abilene Regional

Weather History for KABI - November, 2013

Change the Weather History Date:

Sunday, November 3, 2013

  Actual Average Record
Temperature  
Mean Temperature 58 °F 60 °F  
Max Temperature 71 °F 72 °F 87 °F (1988)
Min Temperature 44 °F 48 °F 21 °F (1991)
Degree Days  
Heating Degree Days 7 7  
Month to date heating degree days 23 19  
Since 1 July heating degree days 102 123  
Cooling Degree Days 0 1  
Month to date cooling degree days 0 5  
Year to date cooling degree days 2709 2394  
Growing Degree Days 8 (Base 50)    
Moisture  
Dew Point 35 °F    
Average Humidity 47    
Maximum Humidity 65    
Minimum Humidity 28    
Precipitation  
Precipitation T in 0.07 in 0.90 in (1938)
Month to date precipitation T 0.20  
Year to date precipitation 20.91 22.38  
Sea Level Pressure  
Sea Level Pressure 30.03 in    
Wind  
Wind Speed 14 mph (South)    
Max Wind Speed 28 mph    
Max Gust Speed 41 mph    
Visibility 10 miles    
Events      
T = Trace of Precipitation, MM = Missing Value Source: NWS Daily Summary

Daily Weather History Graph

Daily Weather History Graph

Search for Another Location

Airport or City:

Trip Planner

Search our weather history database for the weather conditions in past years. The results will help you decide how hot, cold, wet, or windy it might be!

Date:

Astronomy

Nov. 03, 2013 Rise Set
Actual Time 6:57 AM CST 5:46 PM CST
Civil Twilight 6:32 AM CST 6:11 PM CST
Nautical Twilight 6:03 AM CST 6:40 PM CST
Astronomical Twilight 5:34 AM CST 7:09 PM CST
Moon 7:02 AM CST 6:04 PM CST
Length of Visible Light 11h 39m
Length of Day
10h 48m
New Moon, 0% of the Moon is Illuminated
Nov 3
New Moon
Nov 9
First Quarter
Nov 17
Full
Nov 25
Last Quarter
Dec 2
New

Hourly Weather History & Observations

Time (CST) Temp. Windchill Dew Point Humidity Pressure Visibility Wind Dir Wind Speed Gust Speed Precip Events Conditions
12:52 AM 52.0 °F - 32.0 °F 47% 30.15 in 10.0 mi SSE 10.4 mph - N/A   Clear
1:52 AM 52.0 °F - 30.9 °F 45% 30.14 in 10.0 mi SSE 10.4 mph - N/A   Clear
1:52 AM 50.0 °F - 32.0 °F 50% 30.13 in 10.0 mi South 9.2 mph - N/A   Clear
2:52 AM 48.0 °F - 32.0 °F 54% 30.12 in 10.0 mi South 9.2 mph - N/A   Clear
3:52 AM 46.9 °F - 32.0 °F 56% 30.11 in 10.0 mi South 5.8 mph - N/A   Clear
4:52 AM 45.0 °F 41.2 °F 33.1 °F 63% 30.10 in 10.0 mi SSE 6.9 mph - N/A   Clear
5:52 AM 46.9 °F - 33.1 °F 59% 30.09 in 10.0 mi SE 10.4 mph - N/A   Clear
6:52 AM 44.1 °F 37.7 °F 33.1 °F 65% 30.09 in 10.0 mi SE 12.7 mph - N/A   Clear
7:52 AM 48.0 °F - 34.0 °F 58% 30.09 in 10.0 mi SSE 16.1 mph - N/A   Clear
8:52 AM 55.9 °F - 34.0 °F 44% 30.12 in 10.0 mi SSE 12.7 mph 20.7 mph N/A   Clear
9:52 AM 60.1 °F - 34.0 °F 38% 30.11 in 10.0 mi South 9.2 mph 19.6 mph N/A   Clear
10:52 AM 66.0 °F - 34.0 °F 30% 30.06 in 10.0 mi South 19.6 mph 27.6 mph N/A   Clear
11:52 AM 64.9 °F - 34.0 °F 32% 30.02 in 10.0 mi SSE 24.2 mph 28.8 mph N/A   Clear
12:52 PM 69.1 °F - 35.1 °F 29% 29.97 in 10.0 mi South 20.7 mph 27.6 mph N/A   Clear
1:52 PM 66.9 °F - 32.0 °F 27% 29.95 in 10.0 mi South 23.0 mph 33.4 mph N/A   Clear
2:52 PM 64.9 °F - 34.0 °F 32% 29.92 in 10.0 mi SSE 15.0 mph 21.9 mph N/A   Clear
3:52 PM 64.9 °F - 33.1 °F 31% 29.91 in 10.0 mi South 20.7 mph 31.1 mph N/A   Partly Cloudy
4:52 PM 64.0 °F - 35.1 °F 34% 29.90 in 10.0 mi SSE 21.9 mph 31.1 mph N/A   Scattered Clouds
5:52 PM 63.0 °F - 34.0 °F 34% 29.92 in 10.0 mi South 19.6 mph 29.9 mph N/A   Partly Cloudy
6:52 PM 60.1 °F - 37.0 °F 42% 29.96 in 10.0 mi SSW 13.8 mph 21.9 mph N/A   Scattered Clouds
7:52 PM 57.0 °F - 41.0 °F 55% 29.95 in 10.0 mi SSW 9.2 mph 20.7 mph 0.00 in   Overcast
8:52 PM 55.9 °F - 42.1 °F 60% 29.93 in 10.0 mi South 13.8 mph 20.7 mph N/A   Scattered Clouds
9:52 PM 57.0 °F - 41.0 °F 55% 29.90 in 10.0 mi South 17.3 mph 23.0 mph N/A   Clear
10:52 PM 57.0 °F - 41.0 °F 55% 29.92 in 10.0 mi South 16.1 mph 23.0 mph N/A   Mostly Cloudy